Location: Newark
(41.8083°N, 72.2500°W)
Time: 20:05:47
(UTC+00:00)

deb Explorer IX - Pass Details

Date: 05 December 2021
Orbit: 544 x 1082 km, 38.8° (Epoch: 16 January)

Event Time Altitude Azimuth Distance (km) Brightness Sun altitude
Rises 14:39:16 0° 239° (WSW) 3,156 ? 20.0°
Reaches altitude 10° 14:41:58 10° 232° (SW) 2,143 ? 20.2°
Maximum altitude 14:46:32 39° 164° (SSE) 944 ? 20.6°
Drops below altitude 10° 14:50:35 10° 95° (E) 1,902 ? 21.0°
Sets 14:52:51 0° 87° (E) 2,757 ? 21.1°
